Location: Lucerne Valley
(34.4439°N, 116.9669°E)
Time: 23:33:34
(UTC-07:00)

Tiangong 1 - Pass Details

Date: 07 October 2017
Orbit: 293 x 320 km, 42.8° (Epoch: 20 October)

Event Time Altitude Azimuth Distance (km) Brightness Sun altitude
Rises 03:42:16 0° 270° (W) 2,034 6.9 -11.9°
Reaches altitude 10° 03:44:28 10° 285° (WNW) 1,199 4.9 -12.4°
Maximum altitude 03:46:43 23° 342° (NNW) 707 2.6 -12.8°
Enters shadow 03:48:25 14° 32° (NNE) 1,012 2.9 -13.2°
